Location: *
(50.0228°S, 177.2688°W)
Time: 09:28:33
(UTC+00:00)

Lacrosse 4 Rocket - Pass Details

Date: 07 April 2020
Orbit: 538 x 621 km, 68.0° (Epoch: 23 May)

Event Time Altitude Azimuth Distance (km) Brightness Sun altitude
Rises 08:30:46 0° 274° (W) 2,757 5.7 -30.2°
Reaches altitude 10° 08:33:47 10° 251° (WSW) 1,854 4.9 -30.6°
Maximum altitude 08:36:18 16° 213° (SSW) 1,527 4.2 -31.0°
Enters shadow 08:38:05 12° 184° (S) 1,696 4.1 -31.2°
